User: anonymous   Login
Location: Montague
(41.3030°N, 74.7940°W)
Time: 05:05:18
(UTC-04:00)
Language:

Cosmos 1461 - Orbit

View from above orbital plane
View from above orbital plane
View from above satellite
View from above satellite

Ground track
Ground track

The orbit data is extracted from the following two-line orbital elements,

1 14064U 83044A   14302.71054961  .00003890  00000-0  39076-3 0  6745
2 14064 065.0061 013.4697 0094695 060.3183 300.7316 14.89412953579882
Epoch (UTC): 29 October 2014 17:03:11
Eccentricity: 0.0094695
inclination: 65.0061°
perigee height: 533 km
apogee height: 666 km
right ascension of ascending node: 13.4697°
argument of perigee: 60.3183°
revolutions per day: 14.89412953
mean anomaly at epoch: 300.7316°
orbit number at epoch: 57988

The dashed part of the orbit path shows where the satellite is in the earth's shadow,  

DLR